シュワルツ彗星

P/2013 T2 ( Schwartz ) 2019

English version
Home page
Updated on November 4, 2020

---------------------------------------------------------------------

・ プロフィール

・ 軌道要素

Epoch 2019 Nov. 13.0 TT = JDT 2458800.5
T 2019 Nov. 30.52557 TT                                 MPC
q   1.7403487            (2000.0)            P               Q
n   0.15130412     Peri.  345.44336     +0.97137030     +0.23755871
a   3.4879390      Node     0.82532     -0.19822313     +0.81593853
e   0.5010381      Incl.    9.45634     -0.13094783     +0.52707701
P   6.51
From 113 observations 2013 Sept. 14-Dec. 11, mean residual 0".5.

・ 光度変化

        m1 = 17.0 + 5 logΔ + 10.0 log r

        ※ 灰色の曲線は、m1 = 13.5 + 5 logΔ + 15.0 log r の光度曲線です。

---------------------------------------------------------------------

軌道要素はM.P.E.C. 2013-Y32に掲載されたものです。
光度グラフはComet for Windowsで作成したものです。

---------------------------------------------------------------------

Copyright(C) Seiichi Yoshida (comet@aerith.net). All rights reserved.